CST,Max TemperatureF,Mean TemperatureF,Min TemperatureF,Max Dew PointF,MeanDew PointF,Min DewpointF,Max Humidity, Mean Humidity, Min Humidity, Max Sea Level PressureIn, Mean Sea Level PressureIn, Min Sea Level PressureIn, Max VisibilityMiles, Mean VisibilityMiles, Min VisibilityMiles, Max Wind SpeedMPH, Mean Wind SpeedMPH, Max Gust SpeedMPH,PrecipitationIn, CloudCover, Events, WindDirDegrees
2012-12-1,35,32,28,34,31,27,100,95,87,29.97,29.80,29.70,4,1,0,20,9,26,0.00,8,,165
2012-12-2,37,34,30,34,31,28,100,93,87,29.94,29.84,29.68,7,2,0,17,7,25,0.00,8,,166
2012-12-3,46,36,24,45,35,14,93,81,59,29.79,29.58,29.46,10,7,1,24,16,32,0.00,5,,218
2012-12-4,24,16,8,14,7,3,92,70,58,30.37,30.12,29.79,10,10,7,21,13,28,0.00,1,,302
2012-12-5,33,19,6,19,10,1,92,69,51,30.37,30.09,29.75,10,10,8,20,7,29,0.00,1,,148
2012-12-6,35,28,21,28,22,16,81,72,56,29.95,29.79,29.65,10,10,10,23,14,32,0.00,7,,270
2012-12-7,24,18,12,18,12,7,86,76,63,30.05,30.00,29.94,10,10,10,15,7,25,0.00,4,,317
2012-12-8,24,18,12,19,12,5,86,75,68,30.05,30.02,29.98,10,10,6,9,3,,0.00,8,,133
2012-12-9,24,15,6,23,14,1,93,84,79,30.09,30.04,29.99,10,3,1,18,7,26,0.00,8,,4
2012-12-10,10,2,-7,5,-2,-11,100,84,67,29.98,29.86,29.72,10,10,3,16,8,,0.00,2,,322
2012-12-11,12,4,-5,7,0,-9,92,81,66,29.93,29.77,29.68,10,8,2,13,5,17,0.00,6,,246
2012-12-12,21,8,-4,19,10,-8,100,87,79,29.93,29.85,29.77,10,10,7,10,4,17,0.00,6,,134
2012-12-13,21,12,3,19,11,0,93,84,74,30.10,30.02,29.89,10,9,4,12,5,,0.00,5,,346
2012-12-14,28,14,1,25,13,-2,100,88,74,30.10,30.00,29.83,10,10,8,12,4,17,0.00,2,,129
2012-12-15,32,29,26,30,29,23,100,92,86,29.83,29.64,29.55,10,3,0,10,4,,0.31,7,,111
2012-12-16,32,24,15,30,18,12,100,90,86,29.76,29.68,29.55,10,7,1,18,13,23,0.04,8,,320
2012-12-17,19,17,15,18,15,12,100,91,86,29.75,29.70,29.66,10,9,2,14,7,18,0.00,8,,256
2012-12-18,21,19,17,19,18,14,93,93,86,29.75,29.68,29.64,10,8,1,9,3,,0.00,8,,146
2012-12-19,26,22,19,23,20,16,100,87,80,29.99,29.86,29.75,10,7,2,13,7,16,0.00,7,,206
2012-12-20,19,12,6,18,11,1,93,85,79,30.07,29.98,29.94,10,9,4,22,13,26,0.00,8,,333
2012-12-21,12,5,-2,7,-1,-8,100,85,73,30.23,30.16,30.07,10,10,6,13,8,,0.00,1,,314
2012-12-22,15,6,-2,12,3,-8,100,85,72,30.10,30.03,29.97,10,10,5,21,6,25,0.00,4,,341
2012-12-23,12,8,3,7,4,0,92,81,73,30.13,30.09,30.03,10,10,7,15,9,20,0.00,5,,340
2012-12-24,6,0,-7,1,-5,-11,92,81,72,30.26,30.11,30.03,10,10,9,15,11,17,0.00,5,,324
2012-12-25,3,-4,-11,-2,-10,-17,100,85,71,30.41,30.36,30.26,10,10,7,13,7,,0.00,4,,305
2012-12-26,10,2,-5,3,-3,-9,100,84,67,30.34,30.28,30.22,10,9,2,4,0,,0.00,5,,334
2012-12-27,17,8,0,12,4,-6,100,87,73,30.23,30.19,30.13,10,10,5,6,1,,0.00,6,,163
2012-12-28,19,14,8,16,11,5,100,90,85,30.13,30.05,29.98,10,6,1,0,0,,0.00,7,,-1
2012-12-29,17,8,0,16,6,-8,100,84,72,30.05,29.98,29.94,10,8,2,9,2,16,0.00,6,,272
2012-12-30,19,6,-7,14,3,-13,100,83,68,30.06,29.94,29.82,10,10,4,22,6,30,0.00,3,,191
2012-12-31,12,2,-9,7,-5,-17,100,78,65,30.18,30.10,29.91,10,10,7,23,11,29,0.00,2,,309